Wind_Speed
2 5 5 5 5 4 6 5 7 7 3 3 9 6 12 11 15 12 23 24 31 32 28 26 24 22 19 18 19 20 19 17 20 19 14 15 11 7 9 8 9 5 6 8
5 5 5 5 5 5 5 5 4 3 8 5 1 7 9 13 16 21 25 27 31 30 28 27 27 24 22 19 19 21 21 18 19 16 14 14 11 11 12 10 8 5 8 7
6 3 10 6 4 4 1 4 4 5 9 6 5 5 3 6 9 6 22 30 30 38 34 31 30 28 24 24 21 20 21 23 21 17 15 16 14 13 12 9 7 5 6 7
3 2 5 5 3 5 3 8 9 11 14 3 5 3 4 7 12 8 8 31 30 37 36 33 33 31 28 25 23 19 19 19 21 20 15 15 16 15 12 10 7 7 6 7
5 3 1 3 6 4 2 11 3 4 3 2 4 1 3 12 10 16 17 28 34 38 39 36 36 32 30 26 24 23 20 20 21 20 17 14 15 13 11 12 10 8 8 5
7 4 6 6 6 7 15 8 3 4 2 1 1 4 3 9 16 17 19 24 30 41 41 37 34 33 31 29 24 23 24 23 24 22 19 20 15 13 11 13 12 9 9 9
5 5 3 6 8 5 5 6 1 4 3 4 4 3 7 11 15 25 25 27 33 38 39 39 36 36 34 32 27 25 25 24 25 23 19 20 19 16 13 12 12 13 12 11
2 1 8 6 8 10 7 8 4 4 3 3 2 4 5 7 12 21 31 29 34 40 41 40 38 36 35 32 28 27 24 26 24 21 22 20 20 20 16 15 14 13 13 12
1 4 2 5 5 9 5 4 3 6 1 1 3 6 5 3 1 9 23 34 38 37 43 42 40 39 37 33 30 27 24 24 24 22 20 23 21 21 19 17 16 14 15 14
3 2 3 3 9 7 8 8 3 4 3 4 4 4 2 5 3 4 17 25 24 31 37 41 41 41 39 34 31 27 25 21 20 20 20 23 23 22 20 20 17 17 15 15
3 3 5 4 1 8 4 1 5 5 5 4 0 4 4 6 1 7 10 17 23 30 37 39 40 38 40 35 34 31 27 23 21 19 18 20 23 22 20 17 18 18 16 18
1 4 2 2 6 2 4 6 6 5 6 2 1 3 5 5 7 2 9 15 23 29 34 40 40 40 39 37 35 34 31 27 22 19 17 17 20 21 21 20 17 18 17 16
3 2 3 5 7 4 5 2 4 3 3 6 5 3 4 9 12 16 11 6 6 16 26 31 37 41 41 40 37 32 27 27 26 22 19 17 18 19 18 18 16 16 15 15
5 3 5 6 6 1 4 5 3 2 4 5 4 3 6 8 8 13 13 9 3 8 20 30 33 37 38 39 37 33 31 27 27 21 24 21 18 18 17 17 16 16 16 16
5 4 2 4 2 3 3 4 8 1 2 3 5 5 2 4 4 6 8 12 10 4 6 21 27 31 35 37 35 33 31 29 28 25 26 22 18 18 18 18 17 15 15 13
3 2 3 6 7 9 5 9 5 4 3 6 10 4 2 4 11 16 18 17 16 13 5 4 11 19 21 26 29 32 31 29 29 27 23 24 20 19 18 18 17 16 16 16
3 4 1 3 2 6 5 7 6 2 3 2 2 3 3 8 13 14 14 13 13 13 12 8 5 5 11 19 20 19 19 21 24 27 29 25 25 20 19 18 21 19 17 16
5 5 1 3 1 2 3 2 6 6 3 5 6 4 8 10 13 15 14 13 12 11 12 12 11 11 9 7 7 12 15 12 12 14 17 18 24 24 17 18 14 21 19 16
3 4 4 4 1 1 2 2 0 3 2 3 6 8 10 12 11 11 11 12 11 10 11 11 9 6 6 8 8 6 6 6 12 16 15 12 15 16 22 13 9 8 7 8
6 6 4 3 4 4 5 3 2 4 3 2 6 9 11 2 3 2 3 6 7 8 8 7 5 3 4 3 6 6 6 6 4 11 11 12 12 16 19 22 24 23 19 17
4 4 3 2 2 5 4 4 3 4 6 5 5 7 7 3 4 9 2 3 3 2 4 5 5 3 0 2 3 3 3 5 5 7 11 12 14 14 20 13 12 16 25 22
2 3 1 2 3 4 3 2 2 4 2 5 6 4 6 13 14 9 5 3 3 3 1 2 2 3 5 5 3 6 7 8 8 8 11 12 13 14 14 15 13 10 11 12
0 5 4 6 5 3 3 1 1 2 3 7 7 6 9 13 14 11 8 6 6 6 5 4 3 2 2 5 4 2 6 8 8 7 6 6 4 2 2 3 2 2 2 3
1 3 3 3 3 4 2 2 3 4 4 7 7 5 6 5 8 8 8 8 9 9 8 7 5 6 6 4 3 4 5 5 4 5 5 6 8 4 6 6 6 5 4 4
4 9 5 3 7 6 10 9 6 6 6 8 11 7 6 3 4 3 5 7 8 10 10 10 7 5 5 5 4 5 6 6 6 6 5 6 7 5 5 6 6 6 7 5
8 7 5 6 11 8 3 8 12 9 8 12 12 12 10 8 6 4 6 7 8 8 8 8 8 8 6 6 7 7 8 8 6 6 7 6 5 4 3 3 3 4 7 7
Wind_Direction
134 90 210 179 197 154 137 121 112 110 23 53 326 322 180 161 203 212 194 190 199 207 207 209 200 198 198 199 199 194 185 178 180 182 179 178 173 172 165 149 151 159 146 166
40 208 154 166 158 152 172 162 155 104 150 156 204 282 175 175 233 222 192 195 200 205 207 208 201 199 202 203 197 198 195 197 194 191 192 196 188 166 157 154 155 139 164 168
159 215 141 145 188 187 190 264 154 159 177 230 186 287 123 229 247 192 199 201 197 205 204 205 206 201 201 204 196 193 200 199 204 206 207 192 189 183 178 181 161 154 159 174
228 286 162 150 181 173 110 356 218 155 157 232 207 198 214 206 210 218 204 200 202 203 207 205 206 204 204 206 202 196 198 206 200 203 201 203 205 202 210 208 198 188 180 179
249 306 127 166 198 134 77 69 4 82 89 107 193 106 229 169 209 206 218 209 202 206 205 206 207 208 206 206 207 202 197 199 196 200 211 219 204 214 227 219 212 208 202 212
234 215 172 213 164 145 148 95 14 28 107 330 213 180 216 192 209 198 213 208 199 200 205 207 211 209 211 210 210 210 205 206 206 212 223 219 213 215 214 213 216 233 228 217
316 227 208 166 76 40 94 86 214 338 0 236 289 170 258 207 187 190 200 193 200 200 202 206 210 211 213 212 210 211 211 214 216 222 224 223 223 218 219 225 239 245 233 239
239 178 163 187 168 177 178 140 170 142 313 307 283 237 261 190 194 202 204 192 195 199 201 206 210 213 214 212 210 209 212 215 220 224 226 226 227 226 239 235 240 241 235 241
230 279 244 189 153 133 199 131 199 102 144 4 241 277 313 69 72 232 193 183 192 196 201 207 211 213 214 212 213 210 211 214 221 227 230 224 223 230 241 242 246 245 245 245
258 305 308 54 101 51 144 138 93 8 6 278 272 268 134 336 176 120 172 189 191 198 201 205 210 211 214 213 216 213 215 216 222 226 230 229 229 233 240 243 241 244 249 249
175 122 297 41 252 155 126 191 52 108 167 214 281 292 344 267 219 141 150 187 193 205 208 208 211 215 215 216 221 217 215 214 221 225 231 230 232 233 237 242 243 241 248 246
151 140 99 171 288 243 163 158 158 128 213 231 145 309 331 5 30 62 170 202 213 216 216 213 211 209 214 217 223 222 222 216 220 221 230 237 232 233 236 241 243 247 247 245
183 48 71 13 343 353 66 13 119 115 86 176 146 268 22 15 31 30 18 350 248 224 216 215 214 214 214 216 216 216 220 223 226 221 225 232 234 234 235 233 246 243 245 250
95 46 136 159 213 213 1 2 65 25 127 161 210 119 1 357 6 0 11 350 311 212 216 214 214 217 217 215 216 218 223 223 222 226 229 230 237 237 237 237 236 240 246 251
91 38 69 117 135 107 63 12 37 4 336 123 160 111 334 317 28 24 50 49 73 135 232 213 213 216 217 220 223 226 230 229 222 222 228 227 237 238 234 233 240 234 232 244
334 142 303 40 102 43 21 34 82 40 66 83 120 100 222 68 58 50 43 49 58 68 81 175 204 217 219 220 223 229 232 232 236 230 224 221 236 234 246 242 238 233 237 243
60 102 58 336 73 70 349 359 337 40 49 32 341 103 165 87 66 51 55 62 68 83 87 87 118 176 200 220 227 225 229 228 228 227 227 237 231 253 244 252 244 240 239 244
125 135 115 153 77 169 235 338 271 104 90 60 80 121 128 116 101 82 71 77 84 86 97 95 103 114 134 180 217 239 236 223 222 218 222 238 242 238 234 254 242 235 237 251
35 121 79 117 80 277 3 283 355 39 293 117 139 139 132 125 94 63 74 75 86 88 98 111 117 110 106 128 126 114 102 230 246 247 235 235 219 229 225 220 226 227 234 264
47 56 102 91 114 190 223 172 12 142 314 200 154 144 150 144 49 280 66 91 82 72 79 79 90 61 88 132 123 128 101 86 352 204 202 240 232 234 236 238 257 253 260 271
12 1 92 85 126 288 267 337 76 100 242 166 171 150 158 139 149 159 161 112 103 94 95 78 53 37 331 104 131 138 133 81 146 161 179 223 250 240 239 255 245 255 262 263
141 126 192 71 86 274 359 60 158 217 211 168 159 158 141 138 128 144 157 130 131 149 146 132 95 79 115 117 119 154 169 169 181 180 191 216 225 238 247 249 253 248 249 249
340 176 185 170 216 274 334 273 228 154 156 164 174 166 144 133 149 157 155 139 135 139 156 156 134 120 118 111 87 107 166 166 162 168 187 183 197 195 236 254 235 174 162 180
260 162 139 68 261 242 232 214 196 186 190 195 208 198 162 152 155 155 152 151 153 153 157 169 164 154 157 142 116 94 119 125 145 147 144 132 146 98 130 124 121 126 136 142
185 145 159 269 273 278 255 228 210 227 251 223 205 193 171 156 156 162 160 153 160 164 162 159 163 174 160 159 151 143 133 132 139 139 145 154 161 163 189 192 196 166 154 142
189 173 160 217 216 185 208 222 212 207 232 211 189 180 172 159 159 175 170 160 158 150 147 147 145 151 163 152 149 142 133 116 113 119 119 124 129 145 168 174 184 171 167 178
Height
1507 1515 1520 1517 1515 1515 1520 1528 1533 1538 1538 1537 1539 1531 1529 1531 1536 1538 1540 1543 1545 1545 1551 1555 1559 1562 1565 1567 1570 1573 1576 1579 1581 1584 1587 1590 1592 1593 1595 1597 1598 1599 1600 1601
1512 1517 1510 1510 1512 1514 1517 1523 1531 1535 1538 1540 1538 1536 1533 1535 1537 1536 1537 1540 1543 1547 1550 1553 1558 1561 1564 1567 1570 1573 1576 1579 1582 1585 1588 1591 1592 1593 1595 1597 1598 1600 1601 1602
1513 1508 1505 1508 1513 1515 1515 1520 1526 1525 1533 1537 1537 1534 1533 1534 1534 1534 1534 1538 1540 1542 1546 1551 1555 1559 1562 1566 1569 1571 1575 1579 1582 1585 1587 1590 1592 1594 1595 1597 1598 1600 1602 1602
1507 1502 1504 1509 1511 1512 1519 1515 1517 1521 1531 1539 1530 1544 1536 1526 1531 1531 1533 1534 1536 1539 1544 1548 1553 1556 1559 1563 1568 1572 1574 1578 1581 1585 1587 1590 1593 1594 1595 1597 1598 1600 1601 1602
1510 1503 1504 1508 1507 1507 1518 1512 1522 1525 1534 1532 1534 1540 1524 1526 1530 1526 1528 1529 1530 1535 1539 1544 1548 1553 1557 1562 1566 1570 1574 1577 1581 1584 1587 1589 1592 1594 1595 1597 1598 1599 1601 1601
1503 1498 1499 1500 1497 1501 1509 1518 1531 1531 1535 1544 1531 1533 1526 1525 1511 1517 1524 1526 1528 1530 1536 1541 1547 1552 1557 1561 1566 1569 1573 1576 1579 1582 1585 1588 1590 1592 1594 1596 1597 1599 1600 1601
1503 1498 1493 1495 1506 1506 1511 1525 1546 1552 1550 1547 1534 1533 1515 1504 1504 1507 1513 1518 1523 1528 1533 1538 1544 1549 1553 1558 1563 1568 1571 1574 1577 1580 1583 1585 1588 1591 1593 1595 1596 1597 1599 1600
1518 1511 1494 1491 1497 1506 1510 1519 1535 1550 1557 1544 1533 1533 1512 1495 1499 1505 1511 1514 1519 1523 1529 1533 1539 1545 1550 1555 1560 1564 1568 1571 1574 1577 1580 1583 1585 1588 1591 1593 1595 1596 1598 1599
1514 1503 1482 1484 1485 1491 1511 1522 1516 1534 1543 1548 1532 1518 1502 1500 1501 1502 1505 1507 1511 1517 1521 1527 1534 1541 1547 1553 1556 1560 1564 1568 1571 1574 1577 1579 1582 1585 1588 1590 1592 1594 1595 1597
1497 1511 1486 1485 1486 1492 1498 1509 1526 1541 1555 1552 1531 1522 1515 1508 1503 1500 1501 1506 1512 1515 1519 1523 1528 1536 1543 1549 1553 1558 1562 1565 1568 1571 1574 1576 1579 1582 1585 1587 1589 1591 1593 1594
1494 1503 1499 1490 1497 1501 1510 1514 1523 1525 1532 1545 1536 1522 1513 1509 1502 1501 1504 1507 1510 1513 1517 1522 1527 1534 1539 1545 1551 1553 1557 1561 1565 1568 1571 1573 1576 1579 1582 1583 1586 1588 1590 1591
1492 1504 1511 1505 1497 1495 1497 1504 1512 1530 1531 1533 1529 1526 1513 1509 1506 1504 1503 1506 1509 1512 1514 1520 1524 1530 1536 1540 1546 1551 1555 1557 1561 1564 1567 1570 1572 1576 1578 1580 1582 1586 1588 1588
1490 1506 1518 1511 1507 1496 1501 1501 1508 1514 1515 1528 1532 1526 1514 1510 1509 1508 1507 1507 1508 1510 1515 1518 1523 1526 1531 1536 1541 1547 1551 1554 1558 1561 1564 1566 1568 1571 1573 1576 1579 1582 1583 1585
1488 1505 1507 1529 1522 1511 1509 1508 1506 1513 1519 1523 1524 1524 1521 1519 1516 1512 1508 1507 1505 1507 1511 1515 1520 1525 1530 1534 1539 1543 1547 1550 1554 1557 1561 1564 1566 1568 1570 1573 1575 1577 1579 1580
1495 1514 1507 1510 1507 1509 1510 1509 1507 1510 1511 1508 1521 1524 1523 1524 1519 1517 1514 1510 1507 1510 1512 1514 1517 1521 1526 1530 1535 1540 1543 1548 1550 1551 1555 1560 1563 1565 1567 1569 1571 1573 1575 1577
1499 1513 1512 1511 1505 1510 1514 1511 1510 1510 1513 1516 1516 1524 1521 1521 1518 1517 1515 1513 1512 1514 1514 1515 1516 1521 1525 1529 1532 1536 1539 1543 1547 1549 1551 1554 1559 1562 1564 1565 1568 1569 1571 1573
1501 1509 1519 1524 1511 1515 1530 1519 1516 1512 1514 1516 1521 1521 1522 1520 1520 1520 1519 1519 1519 1518 1518 1518 1518 1519 1522 1527 1530 1533 1535 1536 1541 1545 1546 1550 1554 1557 1560 1562 1563 1566 1568 1569
1506 1515 1519 1526 1521 1536 1515 1513 1520 1513 1516 1519 1520 1521 1523 1520 1520 1520 1520 1521 1522 1522 1522 1522 1523 1524 1525 1527 1527 1529 1532 1534 1537 1540 1543 1548 1551 1553 1556 1558 1558 1561 1564 1565
1502 1509 1525 1531 1539 1525 1522 1518 1517 1514 1517 1515 1521 1521 1522 1522 1520 1521 1523 1523 1524 1525 1525 1525 1526 1527 1527 1528 1529 1529 1527 1526 1533 1536 1541 1540 1544 1549 1552 1555 1555 1557 1559 1561
1504 1506 1514 1530 1529 1537 1519 1514 1514 1513 1528 1511 1516 1519 1521 1522 1526 1525 1524 1525 1525 1526 1527 1526 1526 1528 1529 1529 1529 1530 1529 1529 1528 1534 1535 1540 1546 1548 1549 1548 1551 1554 1553 1555
1523 1525 1527 1533 1533 1527 1514 1513 1513 1528 1530 1512 1514 1517 1520 1522 1523 1525 1525 1525 1526 1527 1527 1527 1527 1528 1529 1530 1531 1530 1530 1529 1534 1533 1536 1536 1540 1546 1547 1547 1547 1547 1548 1550
1524 1529 1533 1537 1533 1529 1512 1512 1516 1518 1513 1514 1515 1518 1519 1522 1520 1525 1527 1525 1526 1528 1527 1528 1530 1530 1530 1531 1531 1532 1532 1535 1536 1536 1538 1542 1542 1546 1546 1547 1546 1545 1548 1549
1525 1522 1525 1525 1525 1514 1514 1514 1513 1514 1514 1515 1517 1518 1519 1520 1524 1526 1527 1527 1527 1528 1528 1529 1530 1530 1531 1533 1534 1535 1536 1538 1537 1537 1540 1541 1543 1543 1545 1547 1547 1547 1549 1551
1515 1515 1520 1520 1514 1512 1513 1513 1513 1513 1514 1515 1517 1519 1520 1522 1524 1526 1527 1527 1528 1529 1531 1532 1532 1534 1535 1536 1537 1538 1538 1539 1539 1540 1540 1542 1543 1546 1547 1548 1548 1549 1551 1552
1512 1514 1518 1518 1512 1512 1510 1511 1512 1514 1514 1515 1516 1519 1521 1523 1525 1526 1528 1529 1530 1532 1532 1533 1534 1535 1536 1538 1539 1539 1539 1541 1541 1542 1542 1543 1543 1546 1547 1548 1549 1550 1551 1553
1504 1507 1514 1515 1503 1504 1506 1508 1511 1512 1513 1514 1516 1519 1522 1524 1525 1527 1529 1530 1532 1532 1533 1534 1535 1536 1537 1538 1541 1541 1541 1541 1542 1542 1543 1544 1545 1545 1548 1549 1550 1551 1551 1552